SWR455 LSZH-EDDN

Flight info

Callsign SWR455
Flight time 0h 40m
Altitude 32000
Route DEGES Z1 SUDEN/N0448F230 Z79 GUPIN N869 LETKU LETKU1V
Aircraft A359/H-SDE2E3GHIJ3J4J5LM1ORWXY/LB1D1

Departure

Time 2026-04-25 21:42
Airport Zürich Airport (LSZH)

Arrival

Time 2026-04-25 22:23
Airport Nuremberg Airport (EDDN)
Time Latitude Longitude Altitude Speed Heading
2026-04-25 21:27 47.46172 8.55492 1403 ft 0 kts 186°
2026-04-25 21:36 47.46189 8.55494 1411 ft 4 kts 179°
2026-04-25 21:36 47.46215 8.55490 1413 ft 4 kts 163°
2026-04-25 21:36 47.46240 8.55475 1413 ft 4 kts 143°
2026-04-25 21:36 47.46257 8.55447 1410 ft 4 kts 110°
2026-04-25 21:37 47.46260 8.55431 1411 ft 0 kts 96°
2026-04-25 21:38 47.46260 8.55432 1403 ft 0 kts 96°
2026-04-25 21:39 47.46250 8.55524 1412 ft 14 kts 103°
2026-04-25 21:39 47.46244 8.55658 1403 ft 12 kts 95°
2026-04-25 21:39 47.46238 8.55769 1403 ft 12 kts 95°
2026-04-25 21:39 47.46229 8.55892 1407 ft 13 kts 96°
2026-04-25 21:40 47.46208 8.55994 1412 ft 10 kts 130°
2026-04-25 21:40 47.46150 8.56077 1413 ft 13 kts 137°
2026-04-25 21:40 47.46075 8.56179 1414 ft 16 kts 137°
2026-04-25 21:40 47.46066 8.56320 1416 ft 15 kts 50°
2026-04-25 21:41 47.46141 8.56391 1419 ft 12 kts 11°
2026-04-25 21:41 47.46208 8.56342 1418 ft 18 kts 316°
2026-04-25 21:41 47.46487 8.55960 1416 ft 94 kts 317°
2026-04-25 21:41 47.47144 8.55068 1419 ft 160 kts 317°
2026-04-25 21:42 47.48007 8.53862 1967 ft 176 kts 314°
2026-04-25 21:42 47.48869 8.52535 2844 ft 183 kts 312°
2026-04-25 21:42 47.49750 8.51165 3710 ft 184 kts 320°
2026-04-25 21:42 47.50742 8.49825 4157 ft 207 kts 311°
2026-04-25 21:43 47.51461 8.47880 4663 ft 223 kts 285°
2026-04-25 21:43 47.51690 8.45636 4951 ft 225 kts 266°
2026-04-25 21:43 47.51268 8.43453 5262 ft 224 kts 234°
2026-04-25 21:43 47.50105 8.41921 5970 ft 228 kts 203°
2026-04-25 21:44 47.48553 8.41522 6907 ft 232 kts 171°
2026-04-25 21:44 47.47046 8.42383 7782 ft 238 kts 140°
2026-04-25 21:44 47.45723 8.46854 9156 ft 270 kts 86°
2026-04-25 21:45 47.45777 8.49715 9709 ft 290 kts 85°
2026-04-25 21:45 47.45810 8.51745 10327 ft 295 kts 86°
2026-04-25 21:45 47.45840 8.55952 11045 ft 325 kts 85°
2026-04-25 21:45 47.45961 8.59411 11459 ft 348 kts 83°
2026-04-25 21:46 47.46123 8.63047 12162 ft 359 kts 83°
2026-04-25 21:46 47.46276 8.66770 13067 ft 365 kts 83°
2026-04-25 21:46 47.46423 8.70532 13998 ft 370 kts 83°
2026-04-25 21:46 47.46563 8.74324 14805 ft 375 kts 83°
2026-04-25 21:47 47.46703 8.78215 15637 ft 380 kts 83°
2026-04-25 21:47 47.46747 8.82131 16424 ft 386 kts 90°
2026-04-25 21:47 47.46332 8.86052 17259 ft 392 kts 98°
2026-04-25 21:47 47.45752 8.90004 18101 ft 397 kts 99°
2026-04-25 21:48 47.45158 8.94022 18816 ft 403 kts 99°
2026-04-25 21:48 47.44534 8.98109 19518 ft 409 kts 100°
2026-04-25 21:48 47.43913 9.02190 20265 ft 414 kts 99°
2026-04-25 21:48 47.43284 9.06416 21023 ft 420 kts 99°
2026-04-25 21:49 47.42658 9.10651 21772 ft 425 kts 99°
2026-04-25 21:49 47.42166 9.14921 22486 ft 428 kts 92°
2026-04-25 21:49 47.42177 9.19291 22984 ft 426 kts 79°
2026-04-25 21:49 47.42810 9.23524 23144 ft 420 kts 66°
2026-04-25 21:50 47.43993 9.27454 23148 ft 416 kts 58°
2026-04-25 21:50 47.45373 9.31210 23139 ft 417 kts 56°
2026-04-25 21:50 47.46929 9.34737 23140 ft 413 kts 48°
2026-04-25 21:50 47.48181 9.36911 23139 ft 410 kts 42°
2026-04-25 21:51 47.51047 9.40468 23157 ft 404 kts 30°
2026-04-25 21:51 47.53503 9.42429 23154 ft 399 kts 20°
2026-04-25 21:51 47.56085 9.43908 23157 ft 398 kts 16°
2026-04-25 21:51 47.58758 9.44914 23158 ft 395 kts
2026-04-25 21:52 47.61484 9.45334 23160 ft 393 kts
2026-04-25 21:52 47.64213 9.45548 23164 ft 393 kts
2026-04-25 21:52 47.66958 9.45687 23153 ft 393 kts 360°
2026-04-25 21:52 47.69690 9.45799 23161 ft 393 kts 360°
2026-04-25 21:53 47.72427 9.45912 23158 ft 393 kts 360°
2026-04-25 21:53 47.75155 9.46034 23158 ft 393 kts 360°
2026-04-25 21:53 47.77898 9.46167 23160 ft 393 kts
2026-04-25 21:53 47.80629 9.46308 23157 ft 393 kts
2026-04-25 21:54 47.83341 9.46396 23149 ft 393 kts 359°
2026-04-25 21:54 47.86066 9.46393 23147 ft 393 kts 358°
2026-04-25 21:54 47.88797 9.46352 23159 ft 393 kts 357°
2026-04-25 21:54 47.91534 9.46306 23152 ft 393 kts 357°
2026-04-25 21:55 47.94271 9.46269 23149 ft 393 kts 358°
2026-04-25 21:55 47.97009 9.46244 23150 ft 393 kts 356°
2026-04-25 21:55 47.99741 9.46179 23150 ft 393 kts 355°
2026-04-25 21:55 48.02480 9.46083 23147 ft 393 kts 355°
2026-04-25 21:56 48.05215 9.46000 23157 ft 393 kts 355°
2026-04-25 21:56 48.07037 9.45960 23157 ft 393 kts 356°
2026-04-25 21:56 48.10664 9.45911 23153 ft 393 kts 356°
2026-04-25 21:56 48.13403 9.45894 23152 ft 393 kts 356°
2026-04-25 21:57 48.16141 9.45887 23152 ft 394 kts 356°
2026-04-25 21:57 48.18882 9.45885 23150 ft 394 kts 356°
2026-04-25 21:57 48.21624 9.45890 23150 ft 394 kts 356°
2026-04-25 21:57 48.24360 9.45896 23148 ft 393 kts 356°
2026-04-25 21:58 48.27068 9.45903 23157 ft 394 kts 356°
2026-04-25 21:58 48.29806 9.45908 23149 ft 394 kts 356°
2026-04-25 21:58 48.32557 9.45911 23150 ft 394 kts 356°
2026-04-25 21:58 48.35296 9.45913 23146 ft 394 kts 356°
2026-04-25 21:59 48.38038 9.45915 23146 ft 394 kts 356°
2026-04-25 21:59 48.40772 9.45916 23147 ft 394 kts 356°
2026-04-25 21:59 48.43517 9.45918 23147 ft 394 kts 356°
2026-04-25 22:00 48.48961 9.46023 23143 ft 395 kts
2026-04-25 22:00 48.51706 9.46558 23147 ft 398 kts
2026-04-25 22:00 48.54394 9.47614 23147 ft 401 kts 14°
2026-04-25 22:00 48.56987 9.49212 23163 ft 404 kts 20°
2026-04-25 22:01 48.59521 9.51086 23145 ft 404 kts 22°
2026-04-25 22:01 48.62014 9.53055 23143 ft 405 kts 23°
2026-04-25 22:01 48.64497 9.55077 23143 ft 405 kts 23°
2026-04-25 22:01 48.66133 9.56421 23144 ft 405 kts 23°
2026-04-25 22:02 48.69443 9.59140 23142 ft 405 kts 23°
2026-04-25 22:02 48.71924 9.61169 23139 ft 405 kts 23°
2026-04-25 22:02 48.74408 9.63193 23145 ft 405 kts 23°
2026-04-25 22:02 48.76853 9.65180 23140 ft 404 kts 22°
2026-04-25 22:03 48.79338 9.67198 23144 ft 404 kts 23°
2026-04-25 22:03 48.81816 9.69210 23143 ft 404 kts 23°
2026-04-25 22:03 48.84294 9.71224 23144 ft 404 kts 22°
2026-04-25 22:03 48.86714 9.73439 23145 ft 408 kts 29°
2026-04-25 22:04 48.88940 9.76155 23152 ft 413 kts 37°
2026-04-25 22:04 48.90937 9.79334 23156 ft 416 kts 43°
2026-04-25 22:04 48.92829 9.82669 23152 ft 417 kts 44°
2026-04-25 22:04 48.94651 9.86050 23153 ft 418 kts 45°
2026-04-25 22:05 48.96471 9.89507 23153 ft 418 kts 46°
2026-04-25 22:05 48.98283 9.92976 23152 ft 418 kts 46°
2026-04-25 22:05 49.00098 9.96443 23153 ft 418 kts 45°
2026-04-25 22:05 49.01916 9.99904 23153 ft 418 kts 45°
2026-04-25 22:06 49.03740 10.03361 23151 ft 418 kts 45°
2026-04-25 22:06 49.05562 10.06809 23151 ft 418 kts 45°
2026-04-25 22:06 49.07388 10.10239 23157 ft 417 kts 43°
2026-04-25 22:06 49.09239 10.13583 23160 ft 417 kts 42°
2026-04-25 22:07 49.11121 10.16961 23158 ft 418 kts 43°
2026-04-25 22:07 49.12389 10.19259 23156 ft 418 kts 43°
2026-04-25 22:07 49.14909 10.23679 23159 ft 415 kts 39°
2026-04-25 22:07 49.16908 10.26873 23158 ft 415 kts 39°
2026-04-25 22:08 49.18923 10.30034 23156 ft 415 kts 38°
2026-04-25 22:08 49.20950 10.33185 23155 ft 415 kts 38°
2026-04-25 22:08 49.22983 10.36327 22860 ft 414 kts 38°
2026-04-25 22:08 49.25002 10.39459 22214 ft 413 kts 39°
2026-04-25 22:09 49.26972 10.42599 21529 ft 410 kts 39°
2026-04-25 22:09 49.28941 10.45724 20886 ft 406 kts 39°
2026-04-25 22:09 49.30907 10.48806 20240 ft 401 kts 39°
2026-04-25 22:09 49.32821 10.51786 19614 ft 390 kts 38°
2026-04-25 22:10 49.34748 10.54756 18999 ft 391 kts 38°
2026-04-25 22:10 49.36636 10.57671 18387 ft 389 kts 39°
2026-04-25 22:10 49.38458 10.60438 17691 ft 385 kts 36°
2026-04-25 22:10 49.40343 10.63180 17006 ft 385 kts 40°
2026-04-25 22:11 49.41960 10.66476 16323 ft 390 kts 54°
2026-04-25 22:11 49.42966 10.70369 15682 ft 395 kts 71°
2026-04-25 22:11 49.43219 10.74577 15046 ft 398 kts 88°
2026-04-25 22:11 49.42896 10.78796 14444 ft 395 kts 94°
2026-04-25 22:12 49.42474 10.82948 13825 ft 391 kts 94°
2026-04-25 22:12 49.42062 10.87045 13029 ft 386 kts 94°
2026-04-25 22:12 49.41663 10.91061 12178 ft 381 kts 94°
2026-04-25 22:12 49.41529 10.92413 11894 ft 380 kts 94°
2026-04-25 22:13 49.40878 10.99003 10638 ft 372 kts 94°
2026-04-25 22:13 49.40489 11.02935 10250 ft 370 kts 95°
2026-04-25 22:13 49.40105 11.06802 10140 ft 362 kts 94°
2026-04-25 22:13 49.39740 11.10524 10139 ft 341 kts 94°
2026-04-25 22:14 49.39402 11.14025 9963 ft 319 kts 94°
2026-04-25 22:14 49.39073 11.17286 9552 ft 304 kts 94°
2026-04-25 22:14 49.38746 11.20476 9146 ft 302 kts 94°
2026-04-25 22:14 49.38423 11.23661 8773 ft 301 kts 94°
2026-04-25 22:15 49.38104 11.26839 8381 ft 300 kts 94°
2026-04-25 22:15 49.37790 11.29958 8009 ft 298 kts 94°
2026-04-25 22:15 49.37475 11.33094 7636 ft 296 kts 94°
2026-04-25 22:16 49.36942 11.39314 6892 ft 291 kts 88°
2026-04-25 22:16 49.37369 11.42300 6341 ft 285 kts 63°
2026-04-25 22:16 49.38547 11.44663 5555 ft 277 kts 34°
2026-04-25 22:16 49.40225 11.45897 5066 ft 262 kts 11°
2026-04-25 22:17 49.41992 11.46388 4451 ft 255 kts
2026-04-25 22:17 49.43717 11.46032 4159 ft 247 kts 335°
2026-04-25 22:17 49.45046 11.44627 4111 ft 222 kts 317°
2026-04-25 22:17 49.46122 11.42954 4004 ft 218 kts 308°
2026-04-25 22:18 49.46729 11.40844 3997 ft 218 kts 285°
2026-04-25 22:18 49.46920 11.39325 3984 ft 219 kts 281°
2026-04-25 22:18 49.47183 11.36239 3985 ft 220 kts 279°
2026-04-25 22:18 49.47357 11.33896 3984 ft 220 kts 279°
2026-04-25 22:19 49.47538 11.31558 3936 ft 221 kts 279°
2026-04-25 22:19 49.47678 11.30002 3780 ft 220 kts 279°
2026-04-25 22:19 49.47801 11.27705 3480 ft 211 kts 263°
2026-04-25 22:19 49.47820 11.25503 3188 ft 197 kts 263°
2026-04-25 22:20 49.48017 11.23548 2940 ft 172 kts 279°
2026-04-25 22:20 49.48297 11.21941 2954 ft 146 kts 276°
2026-04-25 22:20 49.48538 11.20400 2558 ft 152 kts 278°
2026-04-25 22:20 49.48786 11.18834 2144 ft 147 kts 274°
2026-04-25 22:21 49.48919 11.17364 1955 ft 131 kts 269°
2026-04-25 22:21 49.49045 11.16007 1830 ft 128 kts 271°
2026-04-25 22:21 49.49179 11.14620 1843 ft 136 kts 274°
2026-04-25 22:21 49.49357 11.13082 1626 ft 150 kts 269°
2026-04-25 22:22 49.49510 11.11535 1368 ft 140 kts 265°
2026-04-25 22:22 49.49649 11.10109 1168 ft 130 kts 267°
2026-04-25 22:22 49.49771 11.08750 1048 ft 128 kts 277°
2026-04-25 22:22 49.49879 11.07669 1030 ft 68 kts 278°
2026-04-25 22:23 49.49930 11.07138 1029 ft 30 kts 277°
2026-04-25 22:23 49.49900 11.07022 1026 ft 8 kts 197°
2026-04-25 22:23 49.49838 11.07038 1022 ft 9 kts 160°
2026-04-25 22:23 49.49792 11.07064 1026 ft 3 kts 158°
2026-04-25 22:24 49.49784 11.07069 1027 ft 0 kts 158°
2026-04-25 22:24 49.49764 11.07087 1022 ft 7 kts 144°
2026-04-25 22:24 49.49736 11.07186 1024 ft 14 kts 105°
2026-04-25 22:24 49.49719 11.07350 1028 ft 17 kts 99°
2026-04-25 22:25 49.49701 11.07542 1027 ft 19 kts 97°
2026-04-25 22:25 49.49679 11.07735 1032 ft 15 kts 110°
2026-04-25 22:25 49.49640 11.07763 1032 ft 7 kts 182°
2026-04-25 22:25 49.49590 11.07781 1032 ft 7 kts 136°
2026-04-25 22:26 49.49575 11.07870 1030 ft 10 kts 98°
2026-04-25 22:26 49.49563 11.07997 1034 ft 13 kts 98°
2026-04-25 22:26 49.49549 11.08137 1031 ft 14 kts 99°
2026-04-25 22:26 49.49530 11.08294 1035 ft 13 kts 102°
2026-04-25 22:27 49.49505 11.08392 1036 ft 9 kts 117°
2026-04-25 22:27 49.49498 11.08441 1037 ft 5 kts 94°
2026-04-25 22:27 49.49506 11.08485 1038 ft 1 kts 52°
2026-04-25 22:27 49.49512 11.08490 1038 ft 1 kts 38°
2026-04-25 22:28 49.49539 11.08501 1039 ft 5 kts
2026-04-25 22:28 49.49540 11.08502 1039 ft 0 kts